Location: Chuathbaluk
(61.5726°N, 159.2454°W)
Time: 03:39:05
(UTC+00:00)

Transit 4A - Pass Details

Date: 04 December 2020
Orbit: 864 x 980 km, 66.8° (Epoch: 26 January)

Event Time Altitude Azimuth Distance (km) Brightness Sun altitude
Rises 22:33:23 0° 289° (WNW) 3,691 10.8 6.0°
Reaches altitude 10° 22:36:01 10° 294° (WNW) 2,743 10.2 6.0°
Maximum altitude 22:42:22 59° 13° (NNE) 1,128 8.2 6.0°
Drops below altitude 10° 22:48:39 10° 93° (E) 2,707 10.4 5.9°
Sets 22:51:14 0° 97° (E) 3,638 11.0 5.9°
